Flag for Grenada Weather past 2 weeks in Saint George's, Grenada

Now
82 °F

Passing clouds.


Feels Like: 89 °F
Forecast: N/A
Wind: 13 mph from Southeast

Location: Point Salines Airport

Current Time: Jan 31, 2015 at 5:50:35 PM

Latest Report: Jan 31, 2015 at 5:00 PM


Visibility: N/A

Pressure: 29.89 "Hg

Humidity: 79%

Dew point: 75 °F

Location of Saint George'sLocation

Historic Weather in Saint George's — Graph

°F

Saint George's temperature yesterday

Maximum temperature yesterday: 84 °F (at 12:00 PM)
Minimum temperature yesterday: 77 °F (at 12:00 AM)
Average temperature yesterday: 81 °F

Past Weeks' High & Low Weather Summary

 TemperatureHumidityPressure
High86 °F (Jan 18, 1:00 PM)100% (Jan 25, 5:00 AM)30.01 "Hg (Jan 25, 5:00 AM)
Low73 °F (Jan 19, 3:00 AM)66% (Jan 18, 4:00 PM)29.86 "Hg (Jan 20, 4:00 PM)
Average80 °F82%29.94 "Hg
* Reported Jan 16 4:00 PM — Jan 31 4:00 PM, Saint George's, Weather by CustomWeather, © 2014

Note: Actual official high and low records may vary slightly from our data, if they occured in-between our weather recording intervals... More about our weather records

Advertising

Saint George's weather history for previous 24 hours

 ConditionsComfort  
Time TempWeatherWind HumidityBarometerVisibility
4:00 PM
Jan 31
84 °FPassing clouds.15 mph74%29.89 "HgN/A
3:00 PM84 °FPassing clouds.16 mph74%29.92 "HgN/A
2:00 PM84 °FPartly sunny.17 mph74%29.92 "HgN/A
1:00 PM84 °FPartly sunny.18 mph74%29.95 "HgN/A
12:00 PM86 °FPassing clouds.22 mph70%29.95 "HgN/A
11:00 AM86 °FScattered clouds.17 mph70%29.98 "HgN/A
10:00 AM84 °FPassing clouds.18 mph74%29.98 "HgN/A
9:00 AM84 °FPassing clouds.14 mph74%29.98 "HgN/A
8:00 AM81 °FPassing clouds.12 mph84%29.95 "HgN/A
7:00 AM77 °FPassing clouds.10 mph89%29.92 "HgN/A
6:00 AM77 °FPassing clouds.12 mph89%29.92 "HgN/A
5:00 AM79 °FPassing clouds.15 mph84%29.89 "HgN/A
4:00 AM79 °FPassing clouds.7 mph84%29.89 "HgN/A
3:00 AM79 °FPassing clouds.9 mph84%29.89 "HgN/A
12:00 AM77 °FPassing clouds.12 mph94%29.92 "HgN/A
10:00 PM
Jan 30
79 °FPassing clouds.9 mph89%29.92 "HgN/A
9:00 PM79 °FPassing clouds.12 mph89%29.92 "HgN/A
8:00 PM79 °FPassing clouds.12 mph84%29.92 "HgN/A
7:00 PM79 °FPassing clouds.12 mph84%29.89 "HgN/A
6:00 PM81 °FScattered clouds.15 mph84%29.89 "HgN/A
5:00 PM82 °FPassing clouds.15 mph74%29.89 "HgN/A
Weather by CustomWeather, © 2014

See weather overviewHow to use our weather pages